Flag Weather past 2 weeks in Qikiqtarjuaq, Nunavut Territory, Canada

Now
28 °F

Light snow. Overcast.


Feels Like: 23 °F
Forecast: N/A
Wind: 5 mph from North

Location: Broughton Island Airport

Current Time: Oct 30, 2014 at 7:08:49 PM

Latest Report: Oct 30, 2014 at 6:03 PM


Visibility: 2 mi

Pressure: 29.89 "Hg

Humidity: 93%

Dew point: 27 °F

Location of QikiqtarjuaqLocation

Historic Weather in Qikiqtarjuaq — Graph

°F

Qikiqtarjuaq temperature yesterday

Maximum temperature yesterday: 28 °F (at 9:00 PM)
Minimum temperature yesterday: 23 °F (at 12:00 AM)
Average temperature yesterday: 25 °F

Past Weeks' High & Low Weather Summary

 TemperatureHumidityPressure
High32 °F (Oct 17, 12:52 AM)93% (Oct 16, 2:00 AM)30.20 "Hg (Oct 16, 2:00 AM)
Low12 °F (Oct 25, 8:00 PM)41% (Oct 23, 5:00 PM)29.54 "Hg (Oct 23, 2:00 AM)
Average24 °F75%29.87 "Hg
* Reported Oct 15 6:00 PM — Oct 30 6:03 PM, Qikiqtarjuaq, Weather by CustomWeather, © 2014

Note: Actual official high and low records may vary slightly from our data, if they occured in-between our weather recording intervals... More about our weather records

Advertising

Qikiqtarjuaq weather history for previous 24 hours

 ConditionsComfort  
Time TempWeatherWind HumidityBarometerVisibility
6:03 PM
Oct 30
28 °FLight snow. Overcast.5 mph93%29.89 "Hg2 mi
5:00 PM28 °FLight snow. Low clouds.6 mph93%29.89 "Hg3 mi
4:00 PM28 °FLight snow. Low clouds.6 mph93%29.88 "Hg3 mi
3:00 PM28 °FLight snow. Low clouds.6 mph86%29.88 "Hg3 mi
2:00 PM28 °FLight snow. Low clouds.6 mph86%29.86 "Hg8 mi
1:00 PM28 °FLight snow. Low clouds.6 mph93%29.85 "Hg10 mi
12:00 PM28 °FLight snow. More clouds than sun.7 mph93%29.85 "Hg10 mi
11:00 AM28 °FLight snow. Mostly cloudy.9 mph93%29.85 "Hg6 mi
10:00 AM28 °FLight snow. Low clouds.8 mph93%29.85 "Hg5 mi
9:00 AM28 °FLight snow. Low clouds.9 mph93%29.84 "Hg3 mi
8:00 AM28 °FLight snow. Mostly cloudy.10 mph93%29.83 "Hg3 mi
7:49 AM28 °FLight snow. Mostly cloudy.9 mph93%29.83 "Hg5 mi
7:00 AM28 °FLight snow. Mostly cloudy.10 mph93%29.82 "Hg9 mi
6:00 AM28 °FLight snow. Overcast.12 mph93%29.80 "Hg9 mi
5:00 AM30 °FLight snow. Mostly cloudy.8 mph86%29.80 "Hg9 mi
4:47 AM30 °FLight snow. Mostly cloudy.9 mph86%29.80 "Hg9 mi
4:00 AM30 °FLight snow. Mostly cloudy.14 mph86%29.79 "Hg9 mi
3:00 AM30 °FLight snow. Overcast.14 mph86%29.78 "Hg9 mi
2:00 AM30 °FMostly cloudy.12 mph86%29.77 "Hg9 mi
1:00 AM28 °FOvercast.6 mph86%29.77 "Hg9 mi
12:00 AM27 °FOvercast.5 mph93%29.75 "Hg9 mi
11:00 PM
Oct 29
25 °FOvercast.5 mph86%29.75 "Hg9 mi
10:00 PM27 °FOvercast.No wind80%29.75 "Hg9 mi
9:00 PM28 °FOvercast.3 mph74%29.74 "Hg9 mi
8:00 PM27 °FOvercast.3 mph80%29.74 "Hg9 mi
7:00 PM27 °FOvercast.3 mph80%29.75 "Hg9 mi
Weather by CustomWeather, © 2014

See weather overviewHow to use our weather pages